Time,TemperatureF,DewpointF,PressureIn,WindDirection,WindDirectionDegrees,WindSpeedMPH,WindSpeedGustMPH,Humidity,HourlyPrecipIn,Conditions,Clouds,dailyrainin,SolarRadiationWatts/m^2,SoftwareType,DateUTC
2013-04-19 00:01:00,66.9,62.2,30.05,East,91,0.0,1.0,85,0.00,BKN,,0.00,0.0,WeatherDisplay:10.37,2013-04-19 04:01:00,
2013-04-19 00:06:00,66.9,62.2,30.05,North,357,0.0,0.0,85,0.00,BKN,,0.00,0.0,WeatherDisplay:10.37,2013-04-19 04:06:00,
2013-04-19 00:11:00,67.1,62.4,30.04,North,6,0.0,1.0,85,0.00,BKN,,0.00,0.0,WeatherDisplay:10.37,2013-04-19 04:11:00,
2013-04-19 00:16:00,67.1,62.4,30.04,NNE,19,0.0,0.0,85,0.00,BKN,,0.00,0.0,WeatherDisplay:10.37,2013-04-19 04:16:00,
2013-04-19 00:21:00,67.1,62.4,30.04,NNE,26,0.0,5.0,85,0.00,BKN,,0.00,0.0,WeatherDisplay:10.37,2013-04-19 04:21:00,
2013-04-19 00:26:00,67.1,62.4,30.04,North,6,0.0,1.0,85,0.00,BKN,,0.00,0.0,WeatherDisplay:10.37,2013-04-19 04:26:00,
2013-04-19 00:31:00,67.1,62.8,30.04,West,264,0.0,1.0,86,0.00,BKN,,0.00,0.0,WeatherDisplay:10.37,2013-04-19 04:31:00,
2013-04-19 00:36:00,67.3,63.0,30.04,SSW,201,0.0,2.0,86,0.00,BKN,,0.00,0.0,WeatherDisplay:10.37,2013-04-19 04:36:00,
2013-04-19 00:41:00,67.3,63.0,30.03,South,176,0.0,1.0,86,0.00,BKN,,0.00,0.0,WeatherDisplay:10.37,2013-04-19 04:41:00,
2013-04-19 00:46:00,67.3,62.6,30.02,ESE,111,0.0,3.0,85,0.00,BKN,,0.00,0.0,WeatherDisplay:10.37,2013-04-19 04:46:00,
2013-04-19 00:51:00,67.3,62.6,30.02,East,95,0.0,0.0,85,0.00,BKN,,0.00,0.0,WeatherDisplay:10.37,2013-04-19 04:51:00,
2013-04-19 00:56:00,67.3,62.6,30.02,ENE,72,0.0,1.0,85,0.00,BKN,,0.00,0.0,WeatherDisplay:10.37,2013-04-19 04:56:00,
2013-04-19 01:01:00,67.3,62.6,30.02,ENE,62,0.0,1.0,85,0.00,BKN,,0.00,0.0,WeatherDisplay:10.37,2013-04-19 05:01:00,
2013-04-19 01:06:00,67.3,62.6,30.02,East,98,0.0,1.0,85,0.00,BKN,,0.00,0.0,WeatherDisplay:10.37,2013-04-19 05:06:00,
2013-04-19 01:11:00,67.3,62.6,30.02,ENE,69,0.0,3.0,85,0.00,BKN,,0.00,0.0,WeatherDisplay:10.37,2013-04-19 05:11:00,
2013-04-19 01:16:00,67.3,62.6,30.02,ESE,105,0.0,1.0,85,0.00,BKN,,0.00,0.0,WeatherDisplay:10.37,2013-04-19 05:16:00,
2013-04-19 01:21:00,67.4,62.7,30.01,SE,134,0.0,5.0,85,0.00,BKN,,0.00,0.0,WeatherDisplay:10.37,2013-04-19 05:21:00,
2013-04-19 01:26:00,67.4,62.7,30.01,East,96,0.0,0.0,85,0.00,BKN,,0.00,0.0,WeatherDisplay:10.37,2013-04-19 05:26:00,
2013-04-19 01:31:00,67.4,62.7,30.01,SE,143,0.0,4.0,85,0.00,BKN,,0.00,0.0,WeatherDisplay:10.37,2013-04-19 05:31:00,
2013-04-19 01:36:00,67.4,62.7,30.00,SSW,204,1.0,5.0,85,0.00,BKN,,0.00,0.0,WeatherDisplay:10.37,2013-04-19 05:36:00,
2013-04-19 01:41:00,67.6,63.3,30.00,NE,45,0.0,1.0,86,0.00,BKN,,0.00,0.0,WeatherDisplay:10.37,2013-04-19 05:41:00,
2013-04-19 01:46:00,67.6,63.3,30.00,NE,53,0.0,0.0,86,0.00,BKN,,0.00,0.0,WeatherDisplay:10.37,2013-04-19 05:46:00,
2013-04-19 01:51:00,67.8,63.8,30.00,SW,214,0.0,6.0,87,0.00,BKN,,0.00,0.0,WeatherDisplay:10.37,2013-04-19 05:51:00,
2013-04-19 01:56:00,67.8,63.8,30.00,SSE,154,0.0,0.0,87,0.00,BKN,,0.00,0.0,WeatherDisplay:10.37,2013-04-19 05:56:00,
2013-04-19 02:01:00,67.8,63.8,29.99,ENE,65,0.0,2.0,87,0.00,BKN,,0.00,0.0,WeatherDisplay:10.37,2013-04-19 06:01:00,
2013-04-19 02:11:00,67.8,64.1,29.99,ENE,75,1.0,3.0,88,0.00,BKN,,0.00,0.0,WeatherDisplay:10.37,2013-04-19 06:11:00,
2013-04-19 02:16:00,67.8,64.1,29.99,SW,228,0.0,4.0,88,0.00,BKN,,0.00,0.0,WeatherDisplay:10.37,2013-04-19 06:16:00,
2013-04-19 02:21:00,67.8,64.1,29.98,SSE,159,0.0,5.0,88,0.00,BKN,,0.00,0.0,WeatherDisplay:10.37,2013-04-19 06:21:00,
2013-04-19 02:26:00,67.8,64.1,29.98,SE,143,0.0,5.0,88,0.00,BKN,,0.00,0.0,WeatherDisplay:10.37,2013-04-19 06:26:00,
2013-04-19 02:31:00,67.8,64.4,29.98,ESE,122,1.0,6.0,89,0.00,BKN,,0.00,0.0,WeatherDisplay:10.37,2013-04-19 06:31:00,
2013-04-19 02:36:00,67.8,64.4,29.97,ENE,64,0.0,2.0,89,0.00,BKN,,0.00,0.0,WeatherDisplay:10.37,2013-04-19 06:36:00,
2013-04-19 02:41:00,67.8,64.4,29.97,NNE,17,0.0,0.0,89,0.00,BKN,,0.00,0.0,WeatherDisplay:10.37,2013-04-19 06:41:00,
2013-04-19 02:46:00,67.8,64.4,29.97,North,356,0.0,1.0,89,0.00,BKN,,0.00,0.0,WeatherDisplay:10.37,2013-04-19 06:46:00,
2013-04-19 02:51:00,67.8,64.4,29.96,ENE,78,0.0,1.0,89,0.00,BKN,,0.00,0.0,WeatherDisplay:10.37,2013-04-19 06:51:00,
2013-04-19 02:56:00,67.8,64.8,29.96,SE,132,0.0,3.0,90,0.00,BKN,,0.00,0.0,WeatherDisplay:10.37,2013-04-19 06:56:00,
2013-04-19 03:01:00,67.8,64.8,29.96,SE,142,0.0,1.0,90,0.00,BKN,,0.00,0.0,WeatherDisplay:10.37,2013-04-19 07:01:00,
2013-04-19 03:11:00,67.8,64.8,29.96,NNW,344,0.0,1.0,90,0.00,BKN,,0.00,0.0,WeatherDisplay:10.37,2013-04-19 07:11:00,
2013-04-19 03:16:00,67.8,64.8,29.95,North,360,0.0,1.0,90,0.00,BKN,,0.00,0.0,WeatherDisplay:10.37,2013-04-19 07:16:00,
2013-04-19 03:21:00,67.8,64.8,29.95,NNE,15,0.0,2.0,90,0.00,BKN,,0.00,0.0,WeatherDisplay:10.37,2013-04-19 07:21:00,
2013-04-19 03:26:00,67.8,65.1,29.95,WSW,245,0.0,6.0,91,0.00,BKN,,0.00,0.0,WeatherDisplay:10.37,2013-04-19 07:26:00,
2013-04-19 03:31:00,67.8,65.1,29.95,South,171,0.0,1.0,91,0.00,BKN,,0.00,0.0,WeatherDisplay:10.37,2013-04-19 07:31:00,
2013-04-19 03:36:00,67.8,65.1,29.95,SSE,159,0.0,0.0,91,0.00,BKN,,0.00,0.0,WeatherDisplay:10.37,2013-04-19 07:36:00,
2013-04-19 03:46:00,67.9,65.2,29.95,SSW,201,0.0,0.0,91,0.00,BKN,,0.00,0.0,WeatherDisplay:10.37,2013-04-19 07:46:00,
2013-04-19 03:51:00,67.9,65.2,29.94,ESE,115,0.0,3.0,91,0.00,BKN,,0.00,0.0,WeatherDisplay:10.37,2013-04-19 07:51:00,
2013-04-19 03:56:00,67.9,65.5,29.94,ENE,74,0.0,1.0,92,0.00,BKN,,0.00,0.0,WeatherDisplay:10.37,2013-04-19 07:56:00,
2013-04-19 04:01:00,67.9,65.5,29.94,East,91,0.0,2.0,92,0.00,BKN,,0.00,0.0,WeatherDisplay:10.37,2013-04-19 08:01:00,
2013-04-19 04:11:00,67.9,65.5,29.94,WSW,250,0.0,0.0,92,0.00,BKN,,0.00,0.0,WeatherDisplay:10.37,2013-04-19 08:11:00,
2013-04-19 04:16:00,67.9,65.5,29.94,ENE,71,0.0,2.0,92,0.00,BKN,,0.00,0.0,WeatherDisplay:10.37,2013-04-19 08:16:00,
2013-04-19 04:21:00,67.9,65.5,29.93,ENE,71,0.0,0.0,92,0.00,BKN,,0.00,0.0,WeatherDisplay:10.37,2013-04-19 08:21:00,
2013-04-19 04:26:00,67.9,65.5,29.93,ENE,58,0.0,3.0,92,0.00,BKN,,0.00,0.0,WeatherDisplay:10.37,2013-04-19 08:26:00,
2013-04-19 04:31:00,67.9,65.5,29.93,NNE,23,0.0,1.0,92,0.00,BKN,,0.00,0.0,WeatherDisplay:10.37,2013-04-19 08:31:00,
2013-04-19 04:36:00,67.9,65.8,29.93,ENE,57,0.0,3.0,93,0.00,BKN,,0.00,0.0,WeatherDisplay:10.37,2013-04-19 08:36:00,
2013-04-19 04:41:00,67.9,65.8,29.93,East,83,0.0,0.0,93,0.00,BKN,,0.00,0.0,WeatherDisplay:10.37,2013-04-19 08:41:00,
2013-04-19 04:46:00,67.9,65.8,29.93,ESE,105,0.0,2.0,93,0.00,BKN,,0.00,0.0,WeatherDisplay:10.37,2013-04-19 08:46:00,
2013-04-19 04:51:00,67.9,65.8,29.93,SSW,192,0.0,1.0,93,0.00,BKN,,0.00,0.0,WeatherDisplay:10.37,2013-04-19 08:51:00,
2013-04-19 04:56:00,67.9,65.8,29.93,South,171,0.0,1.0,93,0.00,BKN,,0.00,0.0,WeatherDisplay:10.37,2013-04-19 08:56:00,
2013-04-19 05:01:00,67.9,65.8,29.93,South,176,0.0,1.0,93,0.00,BKN,,0.00,0.0,WeatherDisplay:10.37,2013-04-19 09:01:00,
2013-04-19 05:11:00,67.8,65.7,29.93,East,85,0.0,0.0,93,0.00,BKN,,0.00,0.0,WeatherDisplay:10.37,2013-04-19 09:11:00,
2013-04-19 05:16:00,67.8,65.7,29.93,North,359,0.0,1.0,93,0.00,BKN,,0.00,0.0,WeatherDisplay:10.37,2013-04-19 09:16:00,
2013-04-19 05:21:00,67.8,65.7,29.93,West,276,0.0,0.0,93,0.00,BKN,,0.00,0.0,WeatherDisplay:10.37,2013-04-19 09:21:00,
2013-04-19 05:26:00,67.9,65.8,29.93,WNW,290,0.0,2.0,93,0.00,BKN,,0.00,0.0,WeatherDisplay:10.37,2013-04-19 09:26:00,
2013-04-19 05:31:00,67.9,65.8,29.93,WNW,291,0.0,1.0,93,0.00,BKN,,0.00,0.0,WeatherDisplay:10.37,2013-04-19 09:31:00,
2013-04-19 05:36:00,67.9,65.8,29.93,ENE,65,0.0,1.0,93,0.00,BKN,,0.00,0.0,WeatherDisplay:10.37,2013-04-19 09:36:00,
2013-04-19 05:41:00,67.9,65.8,29.92,ENE,66,0.0,2.0,93,0.00,BKN,,0.00,0.0,WeatherDisplay:10.37,2013-04-19 09:41:00,
2013-04-19 06:16:00,68.1,66.0,29.92,SE,134,0.0,2.0,93,0.00,BKN,,0.00,0.0,WeatherDisplay:10.37,2013-04-19 10:16:00,
2013-04-19 06:21:00,68.1,65.7,29.92,SSE,151,0.0,0.0,92,0.00,BKN,,0.00,0.0,WeatherDisplay:10.37,2013-04-19 10:21:00,
2013-04-19 06:26:00,68.1,66.0,29.92,SE,130,1.0,7.0,93,0.00,BKN,,0.00,0.0,WeatherDisplay:10.37,2013-04-19 10:26:00,
2013-04-19 06:31:00,68.1,65.7,29.92,NE,39,0.0,1.0,92,0.00,BKN,,0.00,0.0,WeatherDisplay:10.37,2013-04-19 10:31:00,
2013-04-19 06:36:00,67.9,65.5,29.92,NE,44,0.0,5.0,92,0.00,BKN,,0.00,0.0,WeatherDisplay:10.37,2013-04-19 10:36:00,
2013-04-19 06:41:00,67.9,65.5,29.92,North,1,0.0,1.0,92,0.00,BKN,,0.00,0.0,WeatherDisplay:10.37,2013-04-19 10:41:00,
2013-04-19 06:46:00,67.9,65.5,29.93,NNE,29,0.0,3.0,92,0.00,BKN,,0.00,8.0,WeatherDisplay:10.37,2013-04-19 10:46:00,
2013-04-19 06:51:00,67.9,65.5,29.93,ENE,66,0.0,0.0,92,0.00,BKN,,0.00,12.6,WeatherDisplay:10.37,2013-04-19 10:51:00,
2013-04-19 06:56:00,67.9,65.5,29.93,ENE,59,0.0,1.0,92,0.00,BKN,,0.00,18.4,WeatherDisplay:10.37,2013-04-19 10:56:00,
2013-04-19 07:01:00,67.9,65.5,29.93,East,82,0.0,0.0,92,0.00,BKN,,0.00,21.8,WeatherDisplay:10.37,2013-04-19 11:01:00,
2013-04-19 07:11:00,68.1,65.7,29.93,SE,142,0.0,1.0,92,0.00,BKN,,0.00,28.7,WeatherDisplay:10.37,2013-04-19 11:11:00,
2013-04-19 07:16:00,68.1,66.0,29.93,SSE,167,0.0,1.0,93,0.00,BKN,,0.00,32.2,WeatherDisplay:10.37,2013-04-19 11:16:00,
2013-04-19 07:21:00,68.1,66.0,29.93,South,182,0.0,1.0,93,0.00,BKN,,0.00,32.2,WeatherDisplay:10.37,2013-04-19 11:21:00,
2013-04-19 07:26:00,68.1,66.0,29.92,ENE,75,0.0,2.0,93,0.00,BKN,,0.00,44.8,WeatherDisplay:10.37,2013-04-19 11:26:00,
2013-04-19 07:31:00,68.1,66.0,29.93,ENE,63,0.0,3.0,93,0.00,BKN,,0.00,48.3,WeatherDisplay:10.37,2013-04-19 11:31:00,
2013-04-19 07:36:00,68.3,66.2,29.93,East,97,0.0,2.0,93,0.00,BKN,,0.00,48.3,WeatherDisplay:10.37,2013-04-19 11:36:00,
2013-04-19 07:41:00,68.3,66.2,29.93,SSW,213,0.0,3.0,93,0.00,BKN,,0.00,58.7,WeatherDisplay:10.37,2013-04-19 11:41:00,
2013-04-19 07:46:00,68.3,66.2,29.93,SSE,156,0.0,5.0,93,0.00,BKN,,0.00,58.7,WeatherDisplay:10.37,2013-04-19 11:46:00,
2013-04-19 07:51:00,68.3,66.2,29.93,SW,230,0.0,1.0,93,0.00,BKN,,0.00,58.7,WeatherDisplay:10.37,2013-04-19 11:51:00,
2013-04-19 07:56:00,68.3,66.2,29.93,South,182,0.0,2.0,93,0.00,BKN,,0.00,71.3,WeatherDisplay:10.37,2013-04-19 11:56:00,
2013-04-19 08:01:00,68.4,66.3,29.93,East,82,0.0,1.0,93,0.00,BKN,,0.00,74.8,WeatherDisplay:10.37,2013-04-19 12:01:00,
2013-04-19 08:11:00,68.6,66.5,29.93,NE,36,0.0,1.0,93,0.00,BKN,,0.00,138.0,WeatherDisplay:10.37,2013-04-19 12:11:00,
2013-04-19 08:16:00,68.8,66.7,29.93,North,6,0.0,1.0,93,0.00,BKN,,0.00,117.3,WeatherDisplay:10.37,2013-04-19 12:16:00,
2013-04-19 08:21:00,68.8,66.7,29.93,ENE,62,0.0,0.0,93,0.00,BKN,,0.00,93.2,WeatherDisplay:10.37,2013-04-19 12:21:00,
2013-04-19 08:26:00,68.9,66.8,29.93,East,87,0.0,1.0,93,0.00,BKN,,0.00,104.7,WeatherDisplay:10.37,2013-04-19 12:26:00,
2013-04-19 08:31:00,68.9,66.8,29.93,ENE,59,1.0,5.0,93,0.00,BKN,,0.00,186.3,WeatherDisplay:10.37,2013-04-19 12:31:00,
2013-04-19 08:41:00,69.3,66.9,29.93,SSE,160,0.0,1.0,92,0.00,BKN,,0.00,187.4,WeatherDisplay:10.37,2013-04-19 12:41:00,
2013-04-19 08:46:00,69.4,67.0,29.93,ESE,115,0.0,3.0,92,0.00,BKN,,0.00,157.6,WeatherDisplay:10.37,2013-04-19 12:46:00,
2013-04-19 08:51:00,69.6,66.9,29.93,SE,132,0.0,1.0,91,0.00,BKN,,0.00,178.3,WeatherDisplay:10.37,2013-04-19 12:51:00,
2013-04-19 08:56:00,69.8,67.1,29.93,South,174,1.0,6.0,91,0.00,BKN,,0.00,159.9,WeatherDisplay:10.37,2013-04-19 12:56:00,
2013-04-19 09:01:00,69.9,66.8,29.93,South,188,0.0,2.0,90,0.00,OVC,,0.00,181.7,WeatherDisplay:10.37,2013-04-19 13:01:00,
2013-04-19 09:11:00,69.9,66.2,29.93,East,84,0.0,5.0,88,0.00,OVC,,0.00,162.1,WeatherDisplay:10.37,2013-04-19 13:11:00,
2013-04-19 09:16:00,70.2,66.2,29.93,SE,136,0.0,6.0,87,0.00,OVC,,0.00,173.6,WeatherDisplay:10.37,2013-04-19 13:16:00,
2013-04-19 09:21:00,70.4,66.0,29.93,SE,141,1.0,5.0,86,0.00,OVC,,0.00,200.1,WeatherDisplay:10.37,2013-04-19 13:21:00,
2013-04-19 09:26:00,70.8,66.4,29.93,South,169,1.0,5.0,86,0.00,OVC,,0.00,271.4,WeatherDisplay:10.37,2013-04-19 13:26:00,
2013-04-19 09:31:00,71.2,66.5,29.93,South,180,2.0,9.0,85,0.00,OVC,,0.00,256.4,WeatherDisplay:10.37,2013-04-19 13:31:00,
2013-04-19 09:36:00,71.6,66.5,29.93,South,186,0.0,5.0,84,0.00,OVC,,0.00,181.7,WeatherDisplay:10.37,2013-04-19 13:36:00,
2013-04-19 09:41:00,71.8,66.7,29.93,South,179,1.0,4.0,84,0.00,OVC,,0.00,222.0,WeatherDisplay:10.37,2013-04-19 13:41:00,
2013-04-19 09:46:00,72.0,66.6,29.93,South,173,1.0,7.0,83,0.00,OVC,,0.00,208.1,WeatherDisplay:10.37,2013-04-19 13:46:00,
2013-04-19 09:51:00,72.3,66.8,29.93,South,171,1.0,2.0,83,0.00,OVC,,0.00,149.5,WeatherDisplay:10.37,2013-04-19 13:51:00,
2013-04-19 09:56:00,72.5,67.0,29.93,South,169,0.0,5.0,83,0.00,OVC,,0.00,133.4,WeatherDisplay:10.37,2013-04-19 13:56:00,
2013-04-19 10:01:00,72.5,66.7,29.93,SSW,198,1.0,7.0,82,0.00,OVC,,0.00,157.6,WeatherDisplay:10.37,2013-04-19 14:01:00,
2013-04-19 10:11:00,72.8,67.0,29.93,South,183,0.0,3.0,82,0.00,OVC,,0.00,200.1,WeatherDisplay:10.37,2013-04-19 14:11:00,
2013-04-19 10:16:00,73.0,67.2,29.93,South,186,1.0,6.0,82,0.00,OVC,,0.00,196.6,WeatherDisplay:10.37,2013-04-19 14:16:00,
2013-04-19 10:21:00,73.1,66.9,29.93,SSE,163,2.0,6.0,81,0.00,OVC,,0.00,303.6,WeatherDisplay:10.37,2013-04-19 14:21:00,
2013-04-19 10:26:00,73.3,67.1,29.92,SSE,156,0.0,5.0,81,0.00,OVC,,0.00,320.8,WeatherDisplay:10.37,2013-04-19 14:26:00,
2013-04-19 10:31:00,73.7,67.2,29.93,South,177,2.0,7.0,80,0.00,OVC,,0.00,269.1,WeatherDisplay:10.37,2013-04-19 14:31:00,
2013-04-19 10:36:00,73.9,67.4,29.92,South,172,1.0,6.0,80,0.00,OVC,,0.00,288.7,WeatherDisplay:10.37,2013-04-19 14:36:00,
2013-04-19 10:41:00,74.2,67.3,29.92,South,173,3.0,12.0,79,0.00,OVC,,0.00,370.3,WeatherDisplay:10.37,2013-04-19 14:41:00,
2013-04-19 10:46:00,74.5,67.6,29.92,South,187,1.0,6.0,79,0.00,OVC,,0.00,285.2,WeatherDisplay:10.37,2013-04-19 14:46:00,
2013-04-19 10:51:00,74.6,67.3,29.92,SW,228,2.0,8.0,78,0.00,OVC,,0.00,253.0,WeatherDisplay:10.37,2013-04-19 14:51:00,
2013-04-19 10:56:00,74.7,67.4,29.92,South,179,2.0,12.0,78,0.00,OVC,,0.00,218.5,WeatherDisplay:10.37,2013-04-19 14:56:00,
2013-04-19 11:01:00,74.7,67.4,29.91,SSE,164,2.0,7.0,78,0.00,OVC,,0.00,242.7,WeatherDisplay:10.37,2013-04-19 15:01:00,
2013-04-19 11:11:00,74.7,67.0,29.91,South,188,2.0,6.0,77,0.00,OVC,,0.00,204.7,WeatherDisplay:10.37,2013-04-19 15:11:00,
2013-04-19 11:16:00,74.7,67.0,29.91,South,169,1.0,8.0,77,0.00,OVC,,0.00,304.8,WeatherDisplay:10.37,2013-04-19 15:16:00,
2013-04-19 11:21:00,74.9,67.2,29.91,South,180,2.0,7.0,77,0.00,OVC,,0.00,311.7,WeatherDisplay:10.37,2013-04-19 15:21:00,
2013-04-19 11:26:00,75.6,67.5,29.91,SSE,162,1.0,7.0,76,0.00,OVC,,0.00,466.9,WeatherDisplay:10.37,2013-04-19 15:26:00,
2013-04-19 11:31:00,76.8,68.2,29.90,SE,146,3.0,8.0,75,0.00,OVC,,0.00,1037.3,WeatherDisplay:10.37,2013-04-19 15:31:00,
2013-04-19 11:36:00,77.6,68.3,29.91,SSE,159,3.0,8.0,73,0.00,OVC,,0.00,464.6,WeatherDisplay:10.37,2013-04-19 15:36:00,
2013-04-19 11:41:00,77.7,67.5,29.90,South,185,3.0,10.0,71,0.00,OVC,,0.00,586.5,WeatherDisplay:10.37,2013-04-19 15:41:00,
2013-04-19 11:46:00,77.7,67.5,29.90,South,180,2.0,10.0,71,0.00,OVC,,0.00,325.5,WeatherDisplay:10.37,2013-04-19 15:46:00,
2013-04-19 11:51:00,78.1,68.0,29.89,South,183,1.0,5.0,71,0.00,OVC,,0.00,596.8,WeatherDisplay:10.37,2013-04-19 15:51:00,
2013-04-19 11:56:00,78.8,68.2,29.89,SSW,194,1.0,5.0,70,0.00,OVC,,0.00,596.8,WeatherDisplay:10.37,2013-04-19 15:56:00,
2013-04-19 12:01:00,79.9,68.8,29.88,South,189,1.0,6.0,69,0.00,BKN,,0.00,1229.4,WeatherDisplay:10.37,2013-04-19 16:01:00,
2013-04-19 12:11:00,80.3,67.5,29.88,South,188,2.0,9.0,65,0.00,BKN,,0.00,392.2,WeatherDisplay:10.37,2013-04-19 16:11:00,
2013-04-19 12:16:00,80.1,67.7,29.88,South,169,2.0,13.0,66,0.00,BKN,,0.00,386.4,WeatherDisplay:10.37,2013-04-19 16:16:00,
2013-04-19 12:21:00,80.1,67.3,29.88,South,189,5.0,14.0,65,0.00,BKN,,0.00,338.1,WeatherDisplay:10.37,2013-04-19 16:21:00,
2013-04-19 12:26:00,79.9,67.1,29.88,SSW,195,3.0,6.0,65,0.00,BKN,,0.00,220.8,WeatherDisplay:10.37,2013-04-19 16:26:00,
2013-04-19 12:31:00,79.6,67.3,29.88,South,175,1.0,6.0,66,0.00,BKN,,0.00,232.3,WeatherDisplay:10.37,2013-04-19 16:31:00,
2013-04-19 12:36:00,79.6,67.7,29.87,SSE,162,3.0,7.0,67,0.00,BKN,,0.00,412.9,WeatherDisplay:10.37,2013-04-19 16:36:00,
2013-04-19 12:41:00,79.6,67.7,29.87,South,175,3.0,7.0,67,0.00,BKN,,0.00,637.1,WeatherDisplay:10.37,2013-04-19 16:41:00,
2013-04-19 12:46:00,79.8,67.4,29.86,South,176,3.0,7.0,66,0.00,BKN,,0.00,335.8,WeatherDisplay:10.37,2013-04-19 16:46:00,
2013-04-19 12:51:00,79.6,67.2,29.86,NE,36,2.0,6.0,66,0.00,BKN,,0.00,226.6,WeatherDisplay:10.37,2013-04-19 16:51:00,
2013-04-19 12:56:00,79.6,67.7,29.85,ESE,115,1.0,7.0,67,0.00,BKN,,0.00,450.8,WeatherDisplay:10.37,2013-04-19 16:56:00,
2013-04-19 13:01:00,79.8,67.9,29.85,SSE,166,3.0,5.0,67,0.00,BKN,,0.00,525.5,WeatherDisplay:10.37,2013-04-19 17:01:00,
2013-04-19 13:11:00,80.5,67.6,29.85,SE,139,3.0,6.0,65,0.00,BKN,,0.00,584.2,WeatherDisplay:10.37,2013-04-19 17:11:00,
2013-04-19 13:16:00,81.3,68.0,29.83,East,98,3.0,10.0,64,0.00,BKN,,0.00,1138.5,WeatherDisplay:10.37,2013-04-19 17:16:00,
2013-04-19 13:21:00,82.0,68.1,29.83,South,172,2.0,7.0,63,0.00,BKN,,0.00,637.1,WeatherDisplay:10.37,2013-04-19 17:21:00,
2013-04-19 13:26:00,82.2,67.9,29.83,SSW,193,3.0,10.0,62,0.00,BKN,,0.00,370.3,WeatherDisplay:10.37,2013-04-19 17:26:00,
2013-04-19 13:31:00,82.0,67.2,29.83,SSW,192,2.0,6.0,61,0.00,BKN,,0.00,378.3,WeatherDisplay:10.37,2013-04-19 17:31:00,
2013-04-19 13:36:00,81.9,67.2,29.83,South,191,2.0,7.0,61,0.00,BKN,,0.00,346.1,WeatherDisplay:10.37,2013-04-19 17:36:00,
2013-04-19 13:41:00,81.8,67.5,29.82,SW,223,3.0,8.0,62,0.00,BKN,,0.00,291.0,WeatherDisplay:10.37,2013-04-19 17:41:00,
2013-04-19 13:46:00,81.4,66.7,29.82,SSW,196,2.0,7.0,61,0.00,BKN,,0.00,299.0,WeatherDisplay:10.37,2013-04-19 17:46:00,
2013-04-19 13:51:00,81.2,66.9,29.82,South,179,5.0,15.0,62,0.00,BKN,,0.00,354.2,WeatherDisplay:10.37,2013-04-19 17:51:00,
2013-04-19 13:56:00,81.1,67.3,29.82,SSW,195,1.0,5.0,63,0.00,BKN,,0.00,430.1,WeatherDisplay:10.37,2013-04-19 17:56:00,
2013-04-19 14:01:00,81.4,68.1,29.82,South,178,1.0,5.0,64,0.00,OVC,,0.00,400.2,WeatherDisplay:10.37,2013-04-19 18:01:00,
2013-04-19 14:11:00,82.2,66.9,29.80,WNW,302,5.0,12.0,60,0.00,OVC,,0.00,656.7,WeatherDisplay:10.37,2013-04-19 18:11:00,
2013-04-19 14:16:00,82.6,67.3,29.80,SSE,168,3.0,8.0,60,0.00,OVC,,0.00,586.5,WeatherDisplay:10.37,2013-04-19 18:16:00,
2013-04-19 14:21:00,83.2,67.8,29.80,SSE,158,2.0,8.0,60,0.00,OVC,,0.00,658.9,WeatherDisplay:10.37,2013-04-19 18:21:00,
2013-04-19 14:26:00,83.4,67.6,29.80,West,275,1.0,6.0,59,0.00,OVC,,0.00,371.5,WeatherDisplay:10.37,2013-04-19 18:26:00,
2013-04-19 14:31:00,83.6,68.2,29.80,SSW,192,1.0,4.0,60,0.00,OVC,,0.00,242.7,WeatherDisplay:10.37,2013-04-19 18:31:00,
2013-04-19 14:36:00,83.4,67.6,29.79,South,190,1.0,6.0,59,0.00,OVC,,0.00,261.0,WeatherDisplay:10.37,2013-04-19 18:36:00,
2013-04-19 14:41:00,83.2,67.4,29.79,West,278,2.0,10.0,59,0.00,OVC,,0.00,386.4,WeatherDisplay:10.37,2013-04-19 18:41:00,
2013-04-19 14:46:00,83.0,67.2,29.79,East,82,2.0,7.0,59,0.00,OVC,,0.00,343.8,WeatherDisplay:10.37,2013-04-19 18:46:00,
2013-04-19 14:51:00,83.0,66.7,29.79,South,182,3.0,13.0,58,0.00,OVC,,0.00,680.8,WeatherDisplay:10.37,2013-04-19 18:51:00,
2013-04-19 14:56:00,83.6,67.3,29.78,SSE,149,0.0,6.0,58,0.00,OVC,,0.00,864.8,WeatherDisplay:10.37,2013-04-19 18:56:00,
2013-04-19 15:01:00,84.0,67.6,29.78,ENE,76,3.0,18.0,58,0.00,OVC,,0.00,213.9,WeatherDisplay:10.37,2013-04-19 19:01:00,
2013-04-19 15:11:00,83.4,67.6,29.78,SE,145,3.0,9.0,59,0.00,OVC,,0.00,288.7,WeatherDisplay:10.37,2013-04-19 19:11:00,
2013-04-19 15:16:00,83.2,67.9,29.78,South,173,2.0,9.0,60,0.00,OVC,,0.00,269.1,WeatherDisplay:10.37,2013-04-19 19:16:00,
2013-04-19 15:21:00,83.0,67.2,29.78,SSE,166,2.0,6.0,59,0.00,OVC,,0.00,379.5,WeatherDisplay:10.37,2013-04-19 19:21:00,
2013-04-19 15:26:00,83.0,67.7,29.77,SSE,158,1.0,12.0,60,0.00,OVC,,0.00,434.7,WeatherDisplay:10.37,2013-04-19 19:26:00,
2013-04-19 15:31:00,83.4,68.1,29.77,South,173,2.0,7.0,60,0.00,OVC,,0.00,264.5,WeatherDisplay:10.37,2013-04-19 19:31:00,
2013-04-19 15:36:00,83.4,68.1,29.77,ENE,78,0.0,6.0,60,0.00,OVC,,0.00,285.2,WeatherDisplay:10.37,2013-04-19 19:36:00,
2013-04-19 15:41:00,83.4,67.6,29.76,SE,125,2.0,6.0,59,0.00,OVC,,0.00,230.0,WeatherDisplay:10.37,2013-04-19 19:41:00,
2013-04-19 15:46:00,83.4,67.6,29.76,SSE,166,2.0,8.0,59,0.00,OVC,,0.00,173.6,WeatherDisplay:10.37,2013-04-19 19:46:00,
2013-04-19 15:51:00,83.2,67.4,29.75,SE,140,2.0,7.0,59,0.00,OVC,,0.00,171.4,WeatherDisplay:10.37,2013-04-19 19:51:00,
2013-04-19 15:56:00,83.0,67.2,29.75,ESE,115,2.0,8.0,59,0.00,OVC,,0.00,568.1,WeatherDisplay:10.37,2013-04-19 19:56:00,
2013-04-19 16:01:00,83.0,67.2,29.76,East,100,3.0,7.0,59,0.00,OVC,,0.00,123.1,WeatherDisplay:10.37,2013-04-19 20:01:00,
2013-04-19 16:11:00,82.8,67.5,29.75,SSE,147,1.0,6.0,60,0.00,OVC,,0.00,181.7,WeatherDisplay:10.37,2013-04-19 20:11:00,
2013-04-19 16:16:00,82.4,67.1,29.75,East,95,1.0,10.0,60,0.00,OVC,,0.00,149.5,WeatherDisplay:10.37,2013-04-19 20:16:00,
2013-04-19 16:21:00,82.4,67.1,29.75,ESE,104,2.0,7.0,60,0.00,OVC,,0.00,368.0,WeatherDisplay:10.37,2013-04-19 20:21:00,
2013-04-19 16:26:00,82.8,68.0,29.75,SE,146,1.0,8.0,61,0.00,OVC,,0.00,816.5,WeatherDisplay:10.37,2013-04-19 20:26:00,
2013-04-19 16:31:00,83.2,67.4,29.74,South,169,3.0,7.0,59,0.00,OVC,,0.00,228.9,WeatherDisplay:10.37,2013-04-19 20:31:00,
2013-04-19 16:36:00,83.2,66.9,29.74,South,182,3.0,7.0,58,0.00,OVC,,0.00,381.8,WeatherDisplay:10.37,2013-04-19 20:36:00,
2013-04-19 16:41:00,83.0,66.2,29.74,SSW,198,3.0,9.0,57,0.00,OVC,,0.00,194.4,WeatherDisplay:10.37,2013-04-19 20:41:00,
2013-04-19 16:46:00,82.8,66.0,29.75,SSW,192,2.0,12.0,57,0.00,OVC,,0.00,173.6,WeatherDisplay:10.37,2013-04-19 20:46:00,
2013-04-19 16:51:00,82.6,66.3,29.74,SSE,167,2.0,7.0,58,0.00,OVC,,0.00,269.1,WeatherDisplay:10.37,2013-04-19 20:51:00,
2013-04-19 16:56:00,82.6,66.3,29.74,SE,133,5.0,8.0,58,0.00,OVC,,0.00,205.9,WeatherDisplay:10.37,2013-04-19 20:56:00,
2013-04-19 17:01:00,82.4,66.1,29.74,SSE,160,2.0,5.0,58,0.00,OVC,,0.00,176.0,WeatherDisplay:10.37,2013-04-19 21:01:00,
2013-04-19 17:11:00,82.2,66.0,29.74,South,182,1.0,9.0,58,0.00,OVC,,0.00,212.7,WeatherDisplay:10.37,2013-04-19 21:11:00,
2013-04-19 17:16:00,82.0,65.3,29.73,SSW,204,5.0,13.0,57,0.00,OVC,,0.00,202.4,WeatherDisplay:10.37,2013-04-19 21:16:00,
2013-04-19 17:21:00,82.0,65.8,29.73,South,172,5.0,9.0,58,0.00,OVC,,0.00,170.2,WeatherDisplay:10.37,2013-04-19 21:21:00,
2013-04-19 17:26:00,81.8,65.1,29.74,South,169,3.0,9.0,57,0.00,OVC,,0.00,141.4,WeatherDisplay:10.37,2013-04-19 21:26:00,
2013-04-19 17:31:00,81.6,64.9,29.73,South,178,2.0,8.0,57,0.00,OVC,,0.00,123.1,WeatherDisplay:10.37,2013-04-19 21:31:00,
2013-04-19 17:36:00,81.5,65.3,29.73,WSW,243,5.0,13.0,58,0.00,OVC,,0.00,106.9,WeatherDisplay:10.37,2013-04-19 21:36:00,
2013-04-19 17:46:00,81.1,64.4,29.74,ESE,117,2.0,7.0,57,0.00,OVC,,0.00,62.1,WeatherDisplay:10.37,2013-04-19 21:46:00,
2013-04-19 17:51:00,80.9,64.2,29.74,South,173,3.0,6.0,57,0.00,OVC,,0.00,48.3,WeatherDisplay:10.37,2013-04-19 21:51:00,
2013-04-19 17:56:00,80.7,64.5,29.74,ESE,114,2.0,8.0,58,0.00,OVC,,0.00,34.5,WeatherDisplay:10.37,2013-04-19 21:56:00,
2013-04-19 18:01:00,80.3,64.2,29.74,South,169,6.0,10.0,58,0.00,OVC,,0.00,26.5,WeatherDisplay:10.37,2013-04-19 22:01:00,
2013-04-19 18:11:00,79.9,64.8,29.75,South,178,3.0,13.0,60,0.00,OVC,,0.00,13.8,WeatherDisplay:10.37,2013-04-19 22:11:00,
2013-04-19 18:16:00,79.8,65.6,29.75,SSW,205,2.0,7.0,62,0.00,OVC,,0.00,12.6,WeatherDisplay:10.37,2013-04-19 22:16:00,
2013-04-19 18:21:00,79.4,65.3,29.75,SSW,197,2.0,10.0,62,0.00,OVC,,0.00,8.0,WeatherDisplay:10.37,2013-04-19 22:21:00,
2013-04-19 18:26:00,79.2,65.5,29.76,SE,142,3.0,9.0,63,0.00,OVC,,0.00,8.0,WeatherDisplay:10.37,2013-04-19 22:26:00,
2013-04-19 18:31:00,78.9,65.2,29.76,ESE,103,1.0,9.0,63,0.00,OVC,,0.00,8.0,WeatherDisplay:10.37,2013-04-19 22:31:00,
2013-04-19 18:36:00,78.6,65.4,29.81,SW,219,6.0,12.0,64,0.00,OVC,,0.00,0.0,WeatherDisplay:10.37,2013-04-19 22:36:00,
2013-04-19 18:41:00,77.3,65.9,29.83,SW,225,1.0,14.0,68,0.00,OVC,,0.00,0.0,WeatherDisplay:10.37,2013-04-19 22:41:00,
2013-04-19 18:46:00,75.8,64.9,29.82,SW,216,2.0,6.0,69,0.00,OVC,,0.00,0.0,WeatherDisplay:10.37,2013-04-19 22:46:00,
2013-04-19 18:51:00,74.4,64.8,29.81,WSW,237,0.0,2.0,72,0.00,OVC,,0.00,0.0,WeatherDisplay:10.37,2013-04-19 22:51:00,
2013-04-19 18:56:00,73.3,64.5,29.80,SW,226,0.0,5.0,74,0.01,RA,,0.01,0.0,WeatherDisplay:10.37,2013-04-19 22:56:00,
2013-04-19 19:01:00,72.2,64.6,29.80,South,186,0.0,0.0,77,0.02,RA,,0.02,0.0,WeatherDisplay:10.37,2013-04-19 23:01:00,
2013-04-19 19:11:00,70.6,64.2,29.80,SSE,168,0.0,0.0,80,0.03,RA,,0.03,0.0,WeatherDisplay:10.37,2013-04-19 23:11:00,
2013-04-19 19:16:00,70.0,63.9,29.80,SSW,201,0.0,0.0,81,0.04,RA,,0.04,5.8,WeatherDisplay:10.37,2013-04-19 23:16:00,
2013-04-19 19:21:00,69.4,64.0,29.80,WSW,241,0.0,2.0,83,0.05,RA,,0.05,0.0,WeatherDisplay:10.37,2013-04-19 23:21:00,
2013-04-19 19:26:00,68.9,63.9,29.80,WSW,243,0.0,2.0,84,0.05,RA,,0.05,0.0,WeatherDisplay:10.37,2013-04-19 23:26:00,
2013-04-19 19:31:00,68.4,63.7,29.80,West,266,0.0,5.0,85,0.06,RA,,0.06,0.0,WeatherDisplay:10.37,2013-04-19 23:31:00,
2013-04-19 19:36:00,68.1,63.8,29.81,WNW,282,0.0,2.0,86,0.07,RA,,0.07,0.0,WeatherDisplay:10.37,2013-04-19 23:36:00,
2013-04-19 19:41:00,67.8,63.8,29.81,WNW,289,0.0,5.0,87,0.08,RA,,0.08,0.0,WeatherDisplay:10.37,2013-04-19 23:41:00,
2013-04-19 19:46:00,67.6,63.9,29.80,NW,311,1.0,4.0,88,0.09,-RA,,0.09,0.0,WeatherDisplay:10.37,2013-04-19 23:46:00,
2013-04-19 19:51:00,67.4,64.0,29.82,NW,306,0.0,3.0,89,0.10,-RA,,0.10,0.0,WeatherDisplay:10.37,2013-04-19 23:51:00,
2013-04-19 19:56:00,67.3,64.3,29.82,WSW,248,0.0,2.0,90,0.10,-RA,,0.11,0.0,WeatherDisplay:10.37,2013-04-19 23:56:00,
2013-04-19 20:01:00,67.1,64.1,29.82,SW,214,0.0,5.0,90,0.10,-RA,,0.12,0.0,WeatherDisplay:10.37,2013-04-20 00:01:00,
2013-04-19 20:11:00,66.9,64.2,29.82,SSW,210,0.0,4.0,91,0.11,-RA,,0.14,0.0,WeatherDisplay:10.37,2013-04-20 00:11:00,
2013-04-19 20:16:00,66.9,64.2,29.82,South,185,0.0,5.0,91,0.11,-RA,,0.15,0.0,WeatherDisplay:10.37,2013-04-20 00:16:00,
2013-04-19 20:21:00,66.8,64.4,29.82,South,184,0.0,2.0,92,0.11,-RA,,0.16,0.0,WeatherDisplay:10.37,2013-04-20 00:21:00,
2013-04-19 20:26:00,66.8,64.4,29.82,South,181,0.0,3.0,92,0.13,-RA,,0.18,0.0,WeatherDisplay:10.37,2013-04-20 00:26:00,
2013-04-19 20:36:00,66.6,64.2,29.81,SSW,207,0.0,2.0,92,0.13,-RA,,0.20,0.0,WeatherDisplay:10.37,2013-04-20 00:36:00,
2013-04-19 20:41:00,66.4,64.0,29.81,SSW,207,0.0,6.0,92,0.13,-RA,,0.21,0.0,WeatherDisplay:10.37,2013-04-20 00:41:00,
2013-04-19 20:46:00,66.4,64.0,29.81,SSW,197,1.0,4.0,92,0.13,-RA,,0.22,0.0,WeatherDisplay:10.37,2013-04-20 00:46:00,
2013-04-19 20:51:00,66.3,63.9,29.81,SSW,194,0.0,3.0,92,0.13,-RA,,0.23,0.0,WeatherDisplay:10.37,2013-04-20 00:51:00,
2013-04-19 20:56:00,66.3,63.9,29.82,SSW,200,0.0,1.0,92,0.13,-RA,,0.24,0.0,WeatherDisplay:10.37,2013-04-20 00:56:00,
2013-04-19 21:01:00,66.3,64.2,29.82,SSW,200,0.0,0.0,93,0.12,-RA,,0.25,0.0,WeatherDisplay:10.37,2013-04-20 01:01:00,
2013-04-19 21:11:00,66.1,64.0,29.82,SSW,194,0.0,0.0,93,0.12,-RA,,0.26,0.0,WeatherDisplay:10.37,2013-04-20 01:11:00,
2013-04-19 21:16:00,66.1,64.0,29.82,SSW,195,0.0,0.0,93,0.12,-RA,,0.27,0.0,WeatherDisplay:10.37,2013-04-20 01:16:00,
2013-04-19 21:21:00,66.0,63.9,29.82,SSE,152,0.0,0.0,93,0.12,-RA,,0.28,0.0,WeatherDisplay:10.37,2013-04-20 01:21:00,
2013-04-19 21:26:00,66.0,63.9,29.83,SE,146,0.0,0.0,93,0.11,-RA,,0.29,0.0,WeatherDisplay:10.37,2013-04-20 01:26:00,
2013-04-19 21:31:00,66.0,64.2,29.82,SSE,154,0.0,0.0,94,0.11,-RA,,0.30,0.0,WeatherDisplay:10.37,2013-04-20 01:31:00,
2013-04-19 21:36:00,66.0,64.2,29.82,SSE,157,0.0,1.0,94,0.10,-RA,,0.30,0.0,WeatherDisplay:10.37,2013-04-20 01:36:00,
2013-04-19 21:41:00,66.0,64.2,29.82,WNW,303,0.0,2.0,94,0.10,-RA,,0.31,0.0,WeatherDisplay:10.37,2013-04-20 01:41:00,
2013-04-19 21:46:00,66.0,64.2,29.83,WSW,258,0.0,0.0,94,0.09,-RA,,0.31,0.0,WeatherDisplay:10.37,2013-04-20 01:46:00,
2013-04-19 21:51:00,66.0,64.2,29.83,SW,236,0.0,0.0,94,0.09,-RA,,0.32,0.0,WeatherDisplay:10.37,2013-04-20 01:51:00,
2013-04-19 21:56:00,66.0,64.2,29.83,SW,234,0.0,0.0,94,0.09,-RA,,0.33,0.0,WeatherDisplay:10.37,2013-04-20 01:56:00,
2013-04-19 22:01:00,66.1,64.3,29.83,SSW,206,0.0,0.0,94,0.09,-RA,,0.33,0.0,WeatherDisplay:10.37,2013-04-20 02:01:00,
2013-04-19 22:11:00,66.1,64.6,29.82,SE,126,0.0,0.0,95,0.09,-RA,,0.35,0.0,WeatherDisplay:10.37,2013-04-20 02:11:00,
2013-04-19 22:16:00,66.1,64.6,29.82,ESE,112,0.0,1.0,95,0.08,-RA,,0.35,0.0,WeatherDisplay:10.37,2013-04-20 02:16:00,
2013-04-19 22:21:00,66.3,64.8,29.82,ESE,113,0.0,1.0,95,0.08,-RA,,0.36,0.0,WeatherDisplay:10.37,2013-04-20 02:21:00,
2013-04-19 22:26:00,66.3,64.8,29.81,NE,54,0.0,0.0,95,0.07,-RA,,0.36,0.0,WeatherDisplay:10.37,2013-04-20 02:26:00,
2013-04-19 22:31:00,66.3,64.8,29.81,NE,40,0.0,0.0,95,0.07,-RA,,0.37,0.0,WeatherDisplay:10.37,2013-04-20 02:31:00,
2013-04-19 22:36:00,66.3,64.8,29.81,ENE,66,0.0,0.0,95,0.08,-RA,,0.38,0.0,WeatherDisplay:10.37,2013-04-20 02:36:00,
2013-04-19 22:41:00,66.4,64.9,29.80,ENE,63,0.0,3.0,95,0.07,-RA,,0.38,0.0,WeatherDisplay:10.37,2013-04-20 02:41:00,
2013-04-19 22:46:00,66.4,64.9,29.80,ESE,106,0.0,0.0,95,0.08,-RA,,0.39,0.0,WeatherDisplay:10.37,2013-04-20 02:46:00,
2013-04-19 22:51:00,66.4,64.9,29.80,ESE,104,0.0,2.0,95,0.07,-RA,,0.39,0.0,WeatherDisplay:10.37,2013-04-20 02:51:00,
2013-04-19 22:56:00,66.4,64.9,29.79,ESE,105,0.0,2.0,95,0.07,-RA,,0.40,0.0,WeatherDisplay:10.37,2013-04-20 02:56:00,
2013-04-19 23:01:00,66.4,64.9,29.79,East,90,0.0,0.0,95,0.07,-RA,,0.40,0.0,WeatherDisplay:10.37,2013-04-20 03:01:00,
2013-04-19 23:11:00,66.3,64.8,29.78,East,89,0.0,0.0,95,0.06,-RA,,0.41,0.0,WeatherDisplay:10.37,2013-04-20 03:11:00,
2013-04-19 23:16:00,66.3,64.8,29.79,ENE,66,0.0,0.0,95,0.07,-RA,,0.42,0.0,WeatherDisplay:10.37,2013-04-20 03:16:00,
2013-04-19 23:21:00,66.3,64.8,29.79,SE,142,0.0,1.0,95,0.06,-RA,,0.42,0.0,WeatherDisplay:10.37,2013-04-20 03:21:00,
2013-04-19 23:26:00,66.3,64.8,29.79,SE,128,0.0,3.0,95,0.06,-RA,,0.42,0.0,WeatherDisplay:10.37,2013-04-20 03:26:00,
2013-04-19 23:31:00,66.1,64.6,29.79,NE,40,0.0,5.0,95,0.06,-RA,,0.43,0.0,WeatherDisplay:10.37,2013-04-20 03:31:00,
2013-04-19 23:36:00,66.1,64.6,29.80,North,2,0.0,2.0,95,0.05,-RA,,0.43,0.0,WeatherDisplay:10.37,2013-04-20 03:36:00,
2013-04-19 23:41:00,66.1,64.6,29.81,SW,229,0.0,5.0,95,0.06,-RA,,0.44,0.0,WeatherDisplay:10.37,2013-04-20 03:41:00,
2013-04-19 23:46:00,66.1,64.9,29.82,West,277,0.0,0.0,96,0.05,-RA,,0.44,0.0,WeatherDisplay:10.37,2013-04-20 03:46:00,
2013-04-19 23:51:00,66.0,64.8,29.82,West,259,0.0,3.0,96,0.05,-RA,,0.44,0.0,WeatherDisplay:10.37,2013-04-20 03:51:00,
2013-04-19 23:56:00,66.0,64.5,29.83,SSW,204,0.0,0.0,95,0.05,-RA,,0.45,0.0,WeatherDisplay:10.37,2013-04-20 03:56:00,